Date String (YYYY-MM-DD hh:mm:ss) UTC,Instrument flags,Ambient pressure (hPa),Sample flow (lpm),Bypass flow (lpm),Sample temperature (°C),Ambient temperature (°C),ASC tube jacket temperature (°C),LED temperature (°C),Box temperature (°C),Sample RH (%),Span deviation,Mass concentration (μg/m³),Mass concentration (μg/m³),Mass concentration (μg/m³)
DateTimeUTC,F1_M11,P_M11,Q1_M11,Q2_M11,T1_M11,T2_M11,T3_M11,T4_M11,T5_M11,U1_M11,ZSPAN_M11,X0_M11,X2_M11,X1_M11
2022-12-09 00:00:00,,0826.5,5.01,0.00,21.7,21.8,00.0,30.4,23.7,05.7,0000.0,0001.33,0000.90,0000.71
2022-12-09 00:01:00,,0826.5,4.99,0.00,21.7,21.4,00.0,30.5,23.6,05.6,0000.0,0001.38,0000.92,0000.70
2022-12-09 00:02:00,,0826.5,5.01,0.00,21.7,21.0,00.0,30.5,23.5,05.6,0000.0,0001.38,0000.92,0000.69
2022-12-09 00:03:00,,0826.5,5.00,0.00,21.7,20.7,00.0,30.5,23.4,05.6,0000.0,0001.37,0000.90,0000.67
2022-12-09 00:04:00,,0826.5,4.99,0.00,21.6,20.4,00.0,30.5,23.4,05.7,0000.0,0001.38,0000.91,0000.67
2022-12-09 00:05:00,,0826.6,5.00,0.00,21.6,20.3,00.0,30.5,23.4,05.8,0000.0,0001.37,0000.89,0000.66
2022-12-09 00:06:00,,0826.5,5.02,0.00,21.6,20.2,00.0,30.5,23.4,05.8,0000.0,0001.35,0000.87,0000.64
2022-12-09 00:07:00,,0826.6,5.00,0.00,21.6,20.1,00.0,30.5,23.3,05.8,0000.0,0001.32,0000.83,0000.60
2022-12-09 00:08:00,,0826.7,4.98,0.00,21.6,20.1,00.0,30.5,23.3,05.8,0000.0,0001.36,0000.80,0000.57
2022-12-09 00:09:00,,0826.7,5.00,0.00,21.5,19.9,00.0,30.4,23.2,05.7,0000.0,0001.31,0000.76,0000.54
2022-12-09 00:10:00,,0826.7,5.02,0.00,21.5,19.8,00.0,30.4,23.2,05.8,0000.0,0001.19,0000.70,0000.51
2022-12-09 00:11:00,,0826.6,4.99,0.00,21.4,19.6,00.0,30.4,23.1,06.0,0000.0,0001.12,0000.66,0000.49
2022-12-09 00:12:00,,0826.6,4.99,0.00,21.4,19.6,00.0,30.4,23.1,06.1,0000.0,0001.09,0000.65,0000.48
2022-12-09 00:13:00,,0826.6,5.02,0.00,21.4,19.5,00.0,30.4,23.0,05.9,0000.0,0001.13,0000.68,0000.51
2022-12-09 00:14:00,,0826.6,4.98,0.00,21.3,19.5,00.0,30.3,23.0,05.9,0000.0,0001.18,0000.72,0000.56
2022-12-09 00:15:00,,0826.6,5.02,0.00,21.3,19.6,00.0,30.3,22.9,05.7,0000.0,0001.18,0000.75,0000.60
2022-12-09 00:16:00,,0826.7,5.00,0.00,21.3,19.4,00.0,30.3,22.9,05.6,0000.0,0001.17,0000.77,0000.64
2022-12-09 00:17:00,,0826.7,4.98,0.00,21.2,19.3,00.0,30.2,22.8,05.7,0000.0,0001.28,0000.84,0000.71
2022-12-09 00:18:00,,0826.7,5.02,0.00,21.2,20.0,00.0,30.2,22.9,05.9,0000.0,0001.29,0000.89,0000.76
2022-12-09 00:19:00,,0826.7,5.01,0.00,21.3,21.1,00.0,30.2,23.2,05.9,0000.0,0001.32,0000.95,0000.81
2022-12-09 00:20:00,,0826.7,4.97,0.00,21.4,21.9,00.0,30.2,23.4,05.9,0000.0,0001.35,0000.99,0000.84
2022-12-09 00:21:00,,0826.7,5.02,0.00,21.5,21.4,00.0,30.3,23.4,05.9,0000.0,0001.45,0001.03,0000.86
2022-12-09 00:22:00,,0826.7,4.99,0.00,21.5,20.8,00.0,30.3,23.3,05.8,0000.0,0001.57,0001.08,0000.88
2022-12-09 00:23:00,,0826.7,4.99,0.00,21.4,20.3,00.0,30.3,23.1,05.9,0000.0,0001.63,0001.13,0000.91
2022-12-09 00:24:00,,0826.7,5.02,0.00,21.4,19.9,00.0,30.3,23.0,06.0,0000.0,0001.61,0001.11,0000.91
2022-12-09 00:25:00,,0826.7,5.00,0.00,21.3,19.6,00.0,30.3,22.9,06.1,0000.0,0001.59,0001.10,0000.89
2022-12-09 00:26:00,,0826.8,4.99,0.00,21.2,19.4,00.0,30.3,22.9,06.1,0000.0,0001.59,0001.09,0000.88
2022-12-09 00:27:00,,0826.8,5.01,0.00,21.2,19.3,00.0,30.2,22.8,06.2,0000.0,0001.67,0001.12,0000.87
2022-12-09 00:28:00,,0826.9,5.00,0.00,21.1,19.2,00.0,30.2,22.7,06.1,0000.0,0001.59,0001.08,0000.83
2022-12-09 00:29:00,,0826.9,4.99,0.00,21.1,19.1,00.0,30.2,22.7,06.0,0000.0,0001.64,0001.07,0000.80
2022-12-09 00:30:00,,0826.9,5.02,0.00,21.1,19.2,00.0,30.2,22.7,06.2,0000.0,0001.63,0001.05,0000.77
2022-12-09 00:31:00,,0826.9,4.99,0.00,21.1,19.2,00.0,30.1,22.7,06.0,0000.0,0001.73,0001.07,0000.76
2022-12-09 00:32:00,,0827.1,4.98,0.00,21.0,19.1,00.0,30.1,22.6,06.1,0000.0,0001.68,0001.05,0000.76
2022-12-09 00:33:00,,0827.1,5.03,0.00,21.0,19.2,00.0,30.1,22.6,06.4,0000.0,0001.55,0001.00,0000.74
2022-12-09 00:34:00,,0826.9,4.99,0.00,21.0,19.1,00.0,30.0,22.6,06.6,0000.0,0001.50,0000.95,0000.71
2022-12-09 00:35:00,,0826.9,4.99,0.00,20.9,19.2,00.0,30.0,22.6,06.7,0000.0,0001.54,0000.95,0000.68
2022-12-09 00:36:00,,0826.9,5.01,0.00,21.0,20.4,00.0,30.0,22.8,06.7,0000.0,0001.64,0000.97,0000.66
2022-12-09 00:37:00,,0827.0,5.01,0.00,21.1,21.5,00.0,30.0,23.1,06.5,0000.0,0001.59,0000.94,0000.64
2022-12-09 00:38:00,,0826.9,5.01,0.00,21.2,21.2,00.0,30.0,23.1,06.3,0000.0,0001.52,0000.91,0000.64
2022-12-09 00:39:00,,0826.9,5.00,0.00,21.2,20.7,00.0,30.0,23.0,06.3,0000.0,0001.46,0000.88,0000.63
2022-12-09 00:40:00,,0827.0,4.99,0.00,21.2,20.2,00.0,30.0,22.9,06.0,0000.0,0001.36,0000.85,0000.63
2022-12-09 00:41:00,,0826.9,4.98,0.00,21.2,20.0,00.0,30.1,22.9,06.1,0000.0,0001.28,0000.81,0000.63
2022-12-09 00:42:00,,0826.9,5.03,0.00,21.1,19.7,00.0,30.0,22.8,06.4,0000.0,0001.15,0000.76,0000.61
2022-12-09 00:43:00,,0827.1,4.99,0.00,21.1,19.5,00.0,30.0,22.7,06.5,0000.0,0001.10,0000.74,0000.60
2022-12-09 00:44:00,,0826.9,4.98,0.00,21.0,19.3,00.0,30.0,22.6,06.5,0000.0,0001.19,0000.77,0000.60
2022-12-09 00:45:00,,0826.8,5.03,0.00,21.0,19.1,00.0,30.0,22.6,06.5,0000.0,0001.25,0000.79,0000.61
2022-12-09 00:46:00,,0827.1,4.99,0.00,20.9,19.0,00.0,30.0,22.5,06.6,0000.0,0001.18,0000.78,0000.61
2022-12-09 00:47:00,,0826.8,5.00,0.00,20.9,18.9,00.0,29.9,22.5,06.5,0000.0,0001.11,0000.75,0000.61
2022-12-09 00:48:00,,0826.9,5.00,0.00,20.8,18.8,00.0,29.9,22.4,06.5,0000.0,0001.14,0000.75,0000.61
2022-12-09 00:49:00,,0826.9,4.98,0.00,20.8,19.1,00.0,29.9,22.4,06.6,0000.0,0001.14,0000.75,0000.59
2022-12-09 00:50:00,,0826.8,5.01,0.00,20.9,20.4,00.0,29.8,22.7,06.6,0000.0,0001.35,0000.75,0000.58
2022-12-09 00:51:00,,0826.9,5.01,0.00,21.1,21.3,00.0,29.8,23.0,06.6,0000.0,0001.44,0000.76,0000.57
2022-12-09 00:52:00,,0826.9,5.01,0.00,21.1,20.9,00.0,29.9,23.0,06.6,0000.0,0001.53,0000.76,0000.56
2022-12-09 00:53:00,,0826.9,4.98,0.00,21.1,20.3,00.0,29.9,22.8,06.8,0000.0,0001.68,0000.81,0000.56
2022-12-09 00:54:00,,0826.9,4.99,0.00,21.0,20.0,00.0,29.9,22.8,06.8,0000.0,0001.72,0000.82,0000.56
2022-12-09 00:55:00,,0827.0,5.00,0.00,21.0,19.7,00.0,29.9,22.7,06.8,0000.0,0001.67,0000.80,0000.56
2022-12-09 00:56:00,,0827.1,5.03,0.00,21.0,19.4,00.0,29.9,22.6,06.8,0000.0,0001.60,0000.78,0000.57
2022-12-09 00:57:00,,0826.9,4.99,0.00,20.9,19.3,00.0,29.9,22.6,06.8,0000.0,0001.58,0000.78,0000.57
2022-12-09 00:58:00,,0827.0,4.98,0.00,20.9,19.2,00.0,29.9,22.5,06.8,0000.0,0001.58,0000.77,0000.57
2022-12-09 00:59:00,,0827.2,5.01,0.00,20.9,19.0,00.0,29.9,22.5,06.9,0000.0,0001.61,0000.79,0000.57
